Location: Charbonni�res
(45.9952°N, 2.9982°E)
Time: 17:34:19
(UTC+00:00)

Cosmos 2218 Rocket - Pass Details

Date: 29 November 2020
Orbit: 956 x 1006 km, 82.9° (Epoch: 17 January)

Event Time Altitude Azimuth Distance (km) Brightness Sun altitude
Rises 06:25:47 0° 182° (S) 3,684 7.3 -7.3°
Reaches altitude 10° 06:28:18 10° 181° (S) 2,733 6.7 -6.9°
Maximum altitude 06:34:33 78° 96° (E) 1,000 4.3 -5.9°
Drops below altitude 10° 06:40:47 10° 11° (N) 2,718 6.2 -4.9°
Sets 06:43:17 0° 10° (N) 3,663 6.8 -4.5°
